Regional Weather Roundup
Issued by NWS

Home | Current Version | Previous Version | Graphics & Text | Print | Product List | Glossary On
Versions: 1 2 3 4 5 6 7 8 9 10 11 12 13 14 15 16 17 18 19 20 21 22 23 24 25 26 27 28 29 30 31 32 33 34 35 36 37 38 39 40 41 42 43 44 45 46 47 48 49 50
000
ASUS43 KFSD 020010
RWRSD

WEATHER ROUNDUP FOR SOUTH DAKOTA
NATIONAL WEATHER SERVICE SIOUX FALLS SD
700 PM CDT FRI AUG 01 2014

NOTE: "FAIR" INDICATES FEW OR NO CLOUDS BELOW 12,000 FEET WITH NO
SIGNIFICANT WEATHER AND/OR OBSTRUCTIONS TO VISIBILITY.


SDZ001>005-009-010-012>017-020100-
NORTHWEST AND NORTH CENTRAL SOUTH DAKOTA

CITY           SKY/WX    TMP DP  RH WIND       PRES   REMARKS
BUFFALO          N/A     88  50  27 N14       29.98F
FAITH            N/A     87  48  25 SW10      30.01R
MOBRIDGE       PTSUNNY   86  58  38 SE15      29.98F
$$

SDZ012>016-024>037-041>051-057-063-072>074-020100-
SOUTHWEST AND SOUTH CENTRAL SOUTH DAKOTA

CITY           SKY/WX    TMP DP  RH WIND       PRES   REMARKS
RAPID CTY ARPT PTSUNNY   79  50  36 W12       30.06F
PIERRE         SUNNY     89  56  32 E21       29.96F
CUSTER         CLOUDY    67  48  50 S5        30.24F
ELLSWORTH AFB  PTSUNNY   82  50  32 SW12      30.06S
PHILIP         CLOUDY    88  50  27 VRB5      29.98F
PINE RIDGE     PTSUNNY   81  52  36 NE6       30.10S
WINNER         FAIR      91  52  26 SE9       30.01F
$$

SDZ004>011-016>023-039-040-020100-
NORTHEAST SOUTH DAKOTA

CITY           SKY/WX    TMP DP  RH WIND       PRES   REMARKS
ABERDEEN       SUNNY     82  56  40 NE6       30.05F
WATERTOWN      PTSUNNY   78  58  49 S7        30.08S
SISSETON         N/A     82  64  54 NE5       30.05S
$$

SDZ017-020-022-023-036>040-048>070-020100-
SOUTHEAST SOUTH DAKOTA

CITY           SKY/WX    TMP DP  RH WIND       PRES   REMARKS
SIOUX FALLS    MOSUNNY   78  58  49 SE8       30.08S
HURON          MOSUNNY   83  57  41 SE9       30.04S
CHAMBERLAIN    SUNNY     85  56  36 E13G20    30.02S
MITCHELL       SUNNY     81  58  45 SE7       30.06F
YANKTON        SUNNY     79  57  47 E5        30.08S
$$

ABBREVIATIONS USED IN REMARKS
   TC - TEMPERATURE IN CELSIUS
  WCI - WIND CHILL INDEX
   HX - HEAT INDEX
  VSB - VISIBILITY




USA.gov is the U.S. government's official web portal to all federal, state and local government web resources and services.